User: anonymous   Login
Location: Unspecified
(0.0000°N, 0.0000°E)
Time: 19:15:36
(UTC+00:00)
Language:

BRO-14 - Orbit

View from above orbital plane
View from above orbital plane
View from above satellite
View from above satellite

Ground track
Ground track

The orbit is defined by the following mean orbital elements,

1 60551U          26145.45620466 +.00000000 +00000-0 +26989-4 0 00009
2 60551  97.6877 221.6426 0007018 162.2359 197.9109 14.96125699    08
Epoch (UTC): 25 May 2026 10:56:56
Eccentricity: 0.0007018
inclination: 97.6877°
perigee height: 574 km
apogee height: 584 km
right ascension of ascending node: 221.6426°
argument of perigee: 162.2359°
revolutions per day: 14.96125699
mean anomaly at epoch: 197.9109°

The dashed part of the orbit path shows where the satellite is in the earth's shadow,  

DLR